Regional Weather Roundup
Issued by NWS

Home | Current Version | Previous Version | Text Only | Print | Product List | Glossary Off
Versions: 1 2 3 4 5 6 7 8 9 10 11 12 13 14 15 16 17 18 19 20 21 22 23 24 25 26 27 28 29 30 31 32 33 34 35 36 37 38 39 40 41 42 43 44 45 46 47 48 49 50

000
ASUS43 KBIS 250010
RWRND

NORTH DAKOTA REGIONAL WEATHER ROUNDUP
NATIONAL WEATHER SERVICE BISMARCK ND
700 PM CDT FRI MAR 24 2017

NOTE: "FAIR" INDICATES FEW OR NO CLOUDS BELOW 12,000 FEET WITH NO
SIGNIFICANT WEATHER AND/OR OBSTRUCTIONS TO VISIBILITY.


NDZ001>003-009>011-017-250100-
NORTHWEST NORTH DAKOTA

CITY           SKY/WX    TMP DP  RH WIND       PRES   REMARKS
WILLISTON      FAIR      53  32  44 E16       29.98F
6HR MIN TEMP:  48; 6HR MAX TEMP:  59;

MINOT          FAIR      37  29  72 E16       30.12F
MINOT AFB      CLEAR     35  29  80 SE17      30.10F
$$

NDZ018>021-031>035-040>046-250100-
SOUTHWEST NORTH DAKOTA

CITY           SKY/WX    TMP DP  RH WIND       PRES   REMARKS
BISMARCK       FAIR      43  34  70 E14       30.14F
6HR MIN TEMP:  40; 6HR MAX TEMP:  47;

DICKINSON      FAIR      54  33  45 SE18      30.00F
GARRISON         N/A     39  31  72 SE13      30.10F
6HR MIN TEMP:  36; 6HR MAX TEMP:  42;

HETTINGER ARPT SUNNY     56  30  37 SE15      30.04F
$$

NDZ004>008-012>016-024-026-027-054-250100-
NORTHEAST NORTH DAKOTA

CITY           SKY/WX    TMP DP  RH WIND       PRES   REMARKS
GRAND FORKS    MOCLDY    35  29  78 NE7       30.22S
GRND FRKS AFB  CLOUDY    34  28  79 N6        30.22F
DEVILS LAKE    CLOUDY    32  26  78 E7        30.20S
$$

NDZ022-023-025-028>030-036>039-047>053-250100-
SOUTHEAST NORTH DAKOTA

CITY           SKY/WX    TMP DP  RH WIND       PRES   REMARKS
FARGO          CLEAR     38  32  79 N14       30.19R
6HR MIN TEMP:  36; 6HR MAX TEMP:  40;

JAMESTOWN      CLOUDY    34  29  82 NE5       30.18S
$$





USA.gov is the U.S. government's official web portal to all federal, state and local government web resources and services.